Regional Weather Roundup
Issued by NWS Wakefield, VA

Home | Current Version | Previous Version | Graphics & Text | Print | Product List | Glossary On
Versions: 1 2 3 4 5 6 7 8 9 10 11 12 13 14 15 16 17 18 19 20 21 22 23 24 25 26 27
000
ASUS41 KAKQ 231215
RWRAKQ

REGIONAL WEATHER ROUNDUP
NATIONAL WEATHER SERVICE WAKEFIELD VA
800 AM EDT SUN JUL 23 2017

Note: "fair" indicates few or no clouds below 12,000 feet with no
significant weather and/or obstructions to visibility. * = Denotes
station may not report precipitation (e.g., rain,snow,etc.),
thunder or fog.

VAZ042-051-052>054-056-231300-
NORTHERN VIRGINIA

CITY           SKY/WX    TMP DP  RH WIND       PRES   REMARKS
WASH NATIONAL  CLOUDY    77  75  93 CALM      29.80R
DULLES         PTSUNNY   75  73  93 CALM      29.80R
FORT BELVOIR   CLOUDY    75  74  96 NW3       29.79R
QUANTICO       CLOUDY    76  75  97 W6        29.80R
FREDERICKSBRG*   N/A     75  75 100 MISG      29.80R
STAFFORD*      CLOUDY    74  74 100 CALM      29.84R
WARRENTON      CLOUDY    74  71  91 CALM      29.80R FOG
CULPEPER*      PTSUNNY   75  74  99 CALM      29.81S
MANASSAS*      CLOUDY    72  72 100 CALM      29.81R FOG
LEESBURG*      PTSUNNY   73  73 100 SW3       29.82R
WINCHESTER     MOSUNNY   72  70  94 CALM      29.82R
FRONT ROYAL*   MOSUNNY   73  72  94 SW6       29.81R
LURAY*         MOSUNNY   72  72 100 CALM      29.84S
$$

VAZ048-049-060>072-079>083-231300-
CENTRAL AND SOUTH CENTRAL VIRGINIA

CITY           SKY/WX    TMP DP  RH WIND       PRES   REMARKS
RICHMOND       PTSUNNY   79  74  84 SW5       29.81R
CHESTERFIELD*  FAIR      78  75  90 W3        29.81R
PETERSBURG*    PTSUNNY   81  73  76 CALM      29.82R
HANOVER        MOSUNNY   80  71  74 VRB3      29.81R
TAPPAHANNOCK*    N/A    N/A N/A N/A MISG        N/A
QUINTON*       FAIR      77  76  98 CALM      29.80R
CHARLOTTSVILLE CLOUDY    80  73  79 CALM      29.82R
GORDONSVILLE*  CLOUDY    76  75  99 CALM      29.81R
ORANGE*        CLOUDY    72  72 100 CALM      29.81R
LOUISA*        PTSUNNY   75  70  83 W3        29.81S
BUMPASS*       FAIR      75  74  97 SW3       29.80R
FARMVILLE*     CLOUDY    77  74  90 CALM      29.82R
CREWE*         FAIR      79  75  87 CALM      29.82R
FORT PICKETT*  FAIR     N/A N/A N/A SW8       29.82R
CHASE CITY*    FAIR      81  78  89 CALM      29.84R
CLARKSVILLE*   FAIR      79  75  89 SW6       29.84R
SOUTH HILL*    MOSUNNY   80  75  86 S7        29.89R
LAWRENCEVILLE* FAIR      81  74  78 SW9       29.83R
EMPORIA*       SUNNY     79  73  83 S6        29.84R
$$

VAZ088>098-231300-
SOUTHEAST VIRGINIA

CITY           SKY/WX    TMP DP  RH WIND       PRES   REMARKS
NORFOLK        MOSUNNY   83  76  79 SW18      29.80R
VIRGINIA BEACH PTSUNNY   81  74  79 SW15      29.80R
NORFOLK NAVAL  CLOUDY    83  75  77 SW10      29.82R
WEST POINT*    CLOUDY    78  73  84 CALM      29.81S
SALUDA*        FAIR      77  75  95 CALM      29.80R
NEWPORT NEWS   SUNNY     83  74  74 SW12      29.81R
LANGLEY AFB    SUNNY     83  75  77 W12       29.80R
FORT EUSTIS    SUNNY     84  75  73 SW3       29.79R
WILLIAMSBURG*  SUNNY     84  75  74 CALM      29.82R
HR EXEC AP*    FAIR      81  73  78 SW10G16   29.80R
FRANKLIN*      PTSUNNY   79  75  89 SW6       29.83R
US460-WAKEFLD  MOSUNNY   81  75  82 SW6       29.81R
$$

VAZ020-022-025-037-045-231300-
WEST CENTRAL AND SOUTHWEST VIRGINIA

CITY           SKY/WX    TMP DP  RH WIND       PRES   REMARKS
STAUNTON*      PTSUNNY   74  70  87 SW3       29.88R
WAYNESBORO*    PTSUNNY   77  70  80 SW3       29.88S
HOT SPRINGS VA LGT RAIN  64  63  94 W18G24    30.02R
LYNCHBURG      PTSUNNY   77  72  84 CALM      29.86R
DANVILLE       MOSUNNY   78  76  93 SW6       29.86R
SOUTH BOSTON*  FAIR      80  74  81 SW8       29.85R
MARTINSVILLE   PTSUNNY   75  72  88 CALM      29.90R
ROANOKE        CLOUDY    82  69  64 NW8       29.90R
BLACKSBURG     LGT RAIN  76  65  70 W5        29.98R
DUBLIN*        LGT RAIN  73  63  70 W7        29.98R
MARION*        CLOUDY    71  67  87 W13       30.03R
HILLSVILLE*    CLOUDY    73  62  67 CALM      30.00R
RICHLANDS*     PTSUNNY   68  65  90 N3        30.05R FOG
WISE*          CLOUDY    68  68 100 N9        30.07R
ABINGDON*      CLOUDY    73  72  95 CALM      30.01S
$$

MDZ021>025-VAZ099-100-231300-
SOUTHERN MARYLAND AND THE DELMARVA PENINSULA

CITY           SKY/WX    TMP DP  RH WIND       PRES   REMARKS
PATUXENT RIVER CLOUDY    77  76  96 W5        29.79R
BAY BRIDGE APT PTSUNNY   77  73  88 W6        29.77R
LEONARDTOWN    CLOUDY    77  72  83 SW6       29.81R
DOVER          SUNNY     76  76 100 SW6       29.76R
GEORGETOWN     MOSUNNY   77  73  87 SW7       29.78R
EASTON         MOSUNNY   79  75  89 NW3       29.82R
CAMBRIDGE      SUNNY     79  75  89 W5        29.78R
SALISBURY      SUNNY     77  75  94 S3        29.78R
OCEAN CITY     CLOUDY    76  74  93 S6        29.78R
WALLOPS ISLAND PTSUNNY   77  76  96 S3        29.78R
ACCOMACK*      PTSUNNY   82  75  79 W7        29.79R
$$

NCZ012>017-030>032-231300-
NORTH CENTRAL AND EASTERN NORTH CAROLINA

CITY           SKY/WX    TMP DP  RH WIND       PRES   REMARKS
ROANOKE RAPIDS FAIR      81  73  78 SW12      29.83S
RALEIGH        MOSUNNY   82  74  76 SW14      29.88R
ELIZABETH CITY SUNNY     82  77  84 SW14      29.83S
AHOSKIE*         N/A     79  75  89 S3        29.84R
EDENTON*       SUNNY     82  76  80 SW13      29.86R
CURRITUCK*     SUNNY     81  76  84 SW12G17   29.83S
KILL DEVIL HLS SUNNY     81  74  78 SW9G17    29.84R
MANTEO         SUNNY     81  75  81 SW17      29.85S
CAPE HATTERAS  SUNNY     78  74  87 SW14      29.89S
TARBORO*       NOT AVBL
GOLDSBORO      NOT AVBL
WASHINGTON     SUNNY     80  74  82 SW10      29.87S
GREENVILLE     SUNNY     81  75  83 SW14      29.88S
NEW BERN       SUNNY     80  75  84 SW10      29.91S
WILMINGTON     MOSUNNY   81  77  88 SW12      29.93R
$$

VAZ048-231300-
ELSEWHERE

CITY           SKY/WX    TMP DP  RH WIND       PRES   REMARKS
HARRISBURG PA  CLOUDY    76  72  87 NW7       29.78R
BALTIMORE      PTSUNNY   76  75  97 W7        29.78R
ANNAPOLIS      CLOUDY    76  76 100 NW6       29.77R
ANDREWS AFB    CLOUDY    75  74  95 W6        29.79R
PHILADELPHIA   CLOUDY    78  71  79 CALM      29.76R
HENDERSON NC   SUNNY     76  71  83 SW10      29.86R
GREENSBORO     PTSUNNY   79  75  87 SW9       29.89R
ROCKY MOUNT    SUNNY     81  76  84 SW10      29.86R
$$

VAZ100-231300-
MARINE

STATION/POSITION TIME  TEMP    WIND        PRES    WAVE   SWELL
                       AIR SEA DIR/SP/G            HT/PER HT/PER
                 (UTC) (F)     (DEG/KT/KT) (MB)    (FT/S) (FT/S)
BRANDYWINE LGT   1148          240/  9/ 11   N/A
CAPE MAY NJ      1148   76 74  260/  6/  7 1007.6R
LEWES DE         1148   75 72  230/  4/  6 1007.8R
15NM E FENWICK I 1150   73 73  230/  8/ 10 1008.7R   2/ 7   2/ 7
OCEAN-CITY-INLET 1148   72 72  210/  6/  8 1008.7R
WACHAPREAGUE VA  1148   82 82  240/  4/  7 1008.6R
THOMAS POINT MD  1200   75 83  280/ 10/ 11   N/A
GOOSES REEF MD   1200   80 84  300/ 10/ 14 1009.1    1/ 2
COVE POINT MD    1148   78     280/  7/ 12 1009.0R
SOLOMONS ISLAND  1148   80 84  260/  4/  6   N/A
BISHOPS HEAD MD  1148   81 83  260/ 10/ 12 1008.5R
PINEY POINT MD   1148          280/  6/  7   N/A
POTOMAC MD       1200   80 84  280/ 10/ 12 1007.8    1
CAMBRIDGE MD     1148   80 87              1009.1R
LEWISETTA VA     1148   78 85  260/  8/  9 1008.7R
RAPPAHANNOCK LGT 1148          250/ 11/ 11 1009.5R
STINGRAY PT      1150   81     290/ 10/ 12 1009.3R
YORK RVR RNG VA  1148   82     250/ 12/ 14 1009.3R
YORKTOWN VA      1148   82 83  240/ 11/ 15 1008.6R
JAMESTOWN VA     1200      87  240/  6/  8   N/A     0
DOMINION TERM VA 1148   81     230/ 13/ 15 1009.3R
KIPTOPEKE VA     1148      80  230/  9/ 12   N/A
CHES BAY BRIDGE  1148   81 73  230/ 16/ 19 1008.6R
CAPE HENRY VA    1148   81     220/  9/ 15   N/A
WILLOUBY STN VA  1148   81     220/ 17/ 19 1009.0R
S CRANEY ISL VA  1148   81     220/  9/ 13 1009.1R
CAPE HENRY BUOY  1200      65                N/A     3/ 6
1ST LANDING BUOY 1200   82 79              1008.8    2/ 3
64NM E OF VA BCH 1150   80 79  230/ 17/ 19 1009.6S   5/ 6   2/ 9
DUCK PIER NC     1148   81 58  230/ 18/ 21 1010.0R
44100 DUCK FRF   1105      72                N/A     3/ 6
44056 DUCK FRF   1200      61                N/A     2/10
OREGON INLET NC  1148          220/ 20/ 25   N/A
HATTERAS NC      1148   78 76  230/ 11/ 16 1012.2R
DIAMOND SHLS NC  1150   83 85  240/ 25/ 29 1011.9R   5/ 6   2/ 9
CAPE LOOKOUT NC  1200   82     220/ 14/ 17 1012.9R
$$




USA.gov is the U.S. government's official web portal to all federal, state and local government web resources and services.